Location: Peebles
(55.6412°N, 3.1714°W)
Time: 20:26:17
(UTC+01:00)

SR - Visible Passes

Search period start: 02 October 2022 00:00
Search period end: 12 October 2022 00:00
Orbit: 573 x 879 km, 66.7° (Epoch: 02 October)

Date Brightness Start Highest point End Pass type
(mag) Time Alt. Az. Time Alt. Az. Time Alt. Az.
02 Oct ? 00:23:05 23° NNE 00:23:05 23° NNE 00:25:16 10° NE visible
02 Oct ? 02:02:27 29° NNW 02:02:47 29° NNW 02:07:42 10° NE visible
02 Oct ? 03:41:49 12° NW 03:46:25 29° NNE 03:51:10 10° ENE visible
02 Oct ? 05:23:59 10° NW 05:29:36 57° NE 05:34:45 10° ESE visible
02 Oct ? 23:34:13 14° NE 23:34:13 14° NE 23:35:00 10° NE visible
03 Oct ? 01:13:36 30° N 01:13:36 30° N 01:17:14 10° NE visible
03 Oct ? 02:52:58 19° NW 02:55:39 27° N 03:00:19 10° ENE visible
03 Oct ? 04:33:40 10° NW 04:39:05 42° NNE 04:44:06 10° E visible
03 Oct ? 06:15:59 10° NW 06:21:33 69° SW 06:26:37 10° SSE visible
04 Oct ? 00:24:48 22° NNE 00:24:48 22° NNE 00:26:53 10° NE visible
04 Oct ? 02:04:11 27° NNW 02:04:51 27° N 02:09:36 10° NE visible
04 Oct ? 03:43:33 11° NW 03:48:27 33° NNE 03:53:17 10° E visible
04 Oct ? 05:25:40 10° NW 05:31:19 78° NE 05:36:29 10° SE visible
04 Oct ? 23:36:07 13° NE 23:36:07 13° NE 23:36:37 10° NE visible
05 Oct ? 01:15:30 27° NNE 01:15:30 27° NNE 01:19:00 10° NE visible
05 Oct ? 02:54:53 19° NNW 02:57:43 29° N 03:02:25 10° ENE visible
05 Oct ? 04:35:22 10° NW 04:40:56 54° NE 04:46:02 10° ESE visible
05 Oct ? 06:17:44 10° NW 06:22:59 45° WSW 06:27:47 10° SSE visible
05 Oct ? 20:53:50 10° S 20:53:59 11° S 20:53:59 11° S visible
05 Oct?22:47:36NE22:47:36NE22:33:33SWvisible
06 Oct ? 00:27:01 18° NNE 00:27:01 18° NNE 00:28:34 10° NE visible
06 Oct ? 02:06:25 27° N 02:06:56 27° N 02:11:35 10° ENE visible
06 Oct ? 03:45:49 14° NW 03:50:23 40° NNE 03:55:21 10° E visible
06 Oct ? 05:27:21 10° NW 05:32:55 73° SW 05:37:58 10° SSE visible
06 Oct ? 20:05:12 10° SSE 20:07:44 17° ESE 20:07:44 17° ESE visible
06 Oct ? 21:44:24 10° SSW 21:47:17 30° SSW 21:47:17 30° SSW visible
06 Oct?23:38:50NE23:38:50NE23:26:49WSWvisible
07 Oct ? 01:18:16 22° NNE 01:18:16 22° NNE 01:20:52 10° NE visible
07 Oct ? 02:57:43 25° NNW 02:59:44 32° NNE 03:04:32 10° E visible
07 Oct ? 04:37:09 11° NW 04:42:39 74° NE 04:47:47 10° SE visible
07 Oct ? 06:19:39 10° NW 06:24:16 29° WSW 06:28:33 10° S visible
07 Oct ? 19:18:55 10° ESE 19:19:26 10° E 19:19:58 10° E visible
07 Oct ? 20:54:38 10° S 21:00:12 44° ESE 21:00:40 43° ESE visible
07 Oct ? 22:36:23 10° WSW 22:40:11 38° W 22:40:11 38° W visible
08 Oct?00:30:40NE00:30:40NE00:19:41WNWvisible
08 Oct ? 02:10:09 26° NNE 02:10:09 26° NNE 02:13:39 10° ENE visible
08 Oct ? 03:49:38 29° NNW 03:52:14 51° NE 03:57:18 10° ESE visible
08 Oct ? 05:29:07 10° NW 05:34:21 48° WSW 05:39:10 10° SSE visible
08 Oct ? 20:05:21 10° S 20:10:16 28° ESE 20:13:28 17° ENE visible
08 Oct ? 21:45:56 10° SW 21:51:53 85° NW 21:52:55 63° NE visible
08 Oct ? 23:29:16 10° W 23:32:22 26° WNW 23:32:22 26° WNW visible
09 Oct?01:23:12ENE01:23:12ENE01:11:49WNWvisible
09 Oct ? 03:02:44 35° NE 03:02:44 35° NE 03:06:35 10° E visible
09 Oct ? 04:42:16 40° NW 04:44:15 78° SW 04:49:18 10° SE visible
09 Oct ? 06:21:52 10° WNW 06:25:25 18° WSW 06:28:47 10° SSW visible
09 Oct ? 19:16:51 10° SE 19:20:29 17° ESE 19:24:05 10° ENE visible
09 Oct ? 20:55:48 10° SSW 21:01:39 65° SE 21:05:02 25° NE visible
09 Oct ? 22:38:23 10° WSW 22:44:04 46° NNW 22:44:27 45° NNW visible
10 Oct ? 00:22:28 10° WNW 00:23:52 16° NW 00:23:52 16° NW visible
10 Oct?02:16:17E02:16:17E02:03:17NWvisible
10 Oct ? 03:55:50 40° ESE 03:55:50 40° ESE 03:59:04 10° SE visible
10 Oct ? 05:35:23 30° WSW 05:35:39 31° WSW 05:40:00 10° S visible
10 Oct ? 20:06:05 10° S 20:11:35 41° ESE 20:16:43 11° NE visible
10 Oct ? 21:47:41 10° WSW 21:53:35 63° NW 21:56:06 34° NNE visible
10 Oct ? 23:31:30 10° WNW 23:35:30 28° NW 23:35:30 28° NW visible
11 Oct ? 04:49:06 19° S 04:49:06 19° S 04:50:32 10° SSE visible
11 Oct ? 19:16:53 10° SSE 19:21:39 26° ESE 19:26:22 10° ENE visible
11 Oct ? 20:57:16 10° SW 21:03:13 89° NW 21:07:30 19° NE visible
11 Oct ? 22:40:31 10° W 22:45:57 37° NNW 22:46:52 35° N visible
